Time,TemperatureF,DewpointF,PressureIn,WindDirection,WindDirectionDegrees,WindSpeedMPH,WindSpeedGustMPH,Humidity,HourlyPrecipIn,Conditions,Clouds,dailyrainin,SoftwareType,DateUTC
2013-05-07 00:00:00,37.0,-99.9,-100.00,WNW,292,99.0,-999.0,-999,-99.99,,,0.00,,2013-05-07 06:00:00,
2013-05-07 01:00:00,37.0,-99.9,-100.00,North,-999,-999.0,-999.0,-999,-99.99,,,0.00,,2013-05-07 07:00:00,
2013-05-07 01:53:00,37.0,-99.9,-100.00,North,-999,-999.0,-999.0,-999,-99.99,,,0.00,,2013-05-07 07:53:00,
2013-05-07 02:00:00,37.0,-99.9,-100.00,WNW,296,100.0,-999.0,-999,-99.99,,,0.00,,2013-05-07 08:00:00,
2013-05-07 03:00:00,38.0,-99.9,-100.00,WNW,287,97.0,-999.0,-999,-99.99,,,0.00,,2013-05-07 09:00:00,
2013-05-07 04:00:00,42.0,-99.9,-100.00,West,265,95.0,-999.0,-999,-99.99,,,0.00,,2013-05-07 10:00:00,
2013-05-07 05:00:00,41.0,-99.9,-100.00,West,260,92.0,-999.0,-999,-99.99,,,0.00,,2013-05-07 11:00:00,
2013-05-07 06:00:00,41.0,-99.9,-100.00,WSW,254,87.0,-999.0,-999,-99.99,,,0.00,,2013-05-07 12:00:00,
2013-05-07 07:00:00,42.0,-99.9,-100.00,WSW,247,86.0,-999.0,-999,-99.99,,,0.00,,2013-05-07 13:00:00,
2013-05-07 08:00:00,44.0,-99.9,-100.00,WSW,244,84.0,-999.0,-999,-99.99,,,0.00,,2013-05-07 14:00:00,
2013-05-07 11:00:00,45.0,-99.9,-100.00,West,260,94.0,-999.0,-999,-99.99,,,0.00,,2013-05-07 17:00:00,
2013-05-07 12:00:00,52.0,-99.9,-100.00,SSW,204,82.0,-999.0,-999,-99.99,,,0.00,,2013-05-07 18:00:00,
2013-05-07 13:00:00,54.0,-99.9,-100.00,SSE,168,61.0,-999.0,-999,-99.99,,,0.00,,2013-05-07 19:00:00,
2013-05-07 14:00:00,53.0,-99.9,-100.00,SSE,154,57.0,-999.0,-999,-99.99,,,-99.99,,2013-05-07 20:00:00,
2013-05-07 15:00:00,53.0,-99.9,-100.00,South,173,64.0,-999.0,-999,-99.99,,,0.00,,2013-05-07 21:00:00,
2013-05-07 16:00:00,49.0,-99.9,-100.00,SW,224,84.0,-999.0,-999,-99.99,,,0.00,,2013-05-07 22:00:00,
2013-05-07 17:00:00,49.0,-99.9,-100.00,SW,220,78.0,-999.0,-999,-99.99,,,-99.99,,2013-05-07 23:00:00,
2013-05-07 18:00:00,46.0,-99.9,-100.00,SSW,212,94.0,-999.0,-999,-99.99,,,0.00,,2013-05-08 00:00:00,
2013-05-07 19:00:00,41.0,-99.9,-100.00,WNW,289,105.0,-999.0,-999,-99.99,,,0.00,,2013-05-08 01:00:00,
2013-05-07 20:00:00,39.0,-99.9,-100.00,North,-999,-999.0,-999.0,-999,-99.99,,,0.00,,2013-05-08 02:00:00,
2013-05-07 21:00:00,39.0,-99.9,-100.00,NNW,344,115.0,-999.0,-999,-99.99,,,0.01,,2013-05-08 03:00:00,
2013-05-07 22:00:00,41.0,-99.9,-100.00,North,-999,-999.0,-999.0,-999,-99.99,,,0.00,,2013-05-08 04:00:00,
2013-05-07 23:00:00,41.0,-99.9,-100.00,North,-999,-999.0,-999.0,-999,-99.99,,,0.00,,2013-05-08 05:00:00,